Location: Chippewa Lake
(41.0698°N, 81.9010°W)
Time: 21:57:23
(UTC+00:00)

Resurs 01 Rocket - Pass Details

Date: 09 May 2021
Orbit: 633 x 645 km, 97.9° (Epoch: 17 June)

Event Time Altitude Azimuth Distance (km) Brightness Sun altitude
Exits shadow 01:22:22 12° 129° (SE) 1,927 3.4 -9.1°
Maximum altitude 01:25:59 31° 69° (ENE) 1,121 2.6 -9.7°
Drops below altitude 10° 01:29:55 10° 8° (N) 2,046 4.6 -10.3°
Sets 01:32:18 0° 358° (N) 2,959 5.6 -10.7°
